Location: Makanda
(37.6176°N, 89.2090°W)
Time: 14:43:38
(UTC+00:00)

BREEZE-M DEB (TANK) - Pass Details

Date: 23 September 2019
Orbit: 327 x 16738 km, 49.5° (Epoch: 20 October)

Event Time Altitude Azimuth Distance (km) Brightness Sun altitude
Exits shadow 11:10:16 - 238° (WSW) 2,869 5.9 -7.8°
Reaches altitude 10° 11:11:37 10° 239° (WSW) 2,178 5.3 -7.5°
Maximum altitude 11:15:32 68° 324° (NW) 429 2.2 -6.7°
Drops below altitude 10° 11:17:47 10° 49° (NE) 1,257 5.6 -6.3°
Sets 11:19:25 0° 52° (NE) 2,114 6.9 -6.0°
